Time,TemperatureF,DewpointF,PressureIn,WindDirection,WindDirectionDegrees,WindSpeedMPH,WindSpeedGustMPH,Humidity,HourlyPrecipIn,Conditions,Clouds,dailyrainin,SoftwareType,DateUTC
2013-06-13 08:38:00,60.5,48.7,30.16,South,180,9.8,9.8,65,0.00,,,0.00,WUHU216HW,2013-06-13 15:38:00,
2013-06-13 08:39:00,60.5,48.7,30.16,South,180,9.8,9.8,65,0.00,,,0.00,WUHU216HW,2013-06-13 15:39:00,
2013-06-13 08:43:00,61.2,51.0,30.20,West,270,1.1,9.8,69,0.00,,,0.00,WUHU216HW,2013-06-13 15:43:00,
2013-06-13 08:44:00,61.2,51.0,30.20,West,270,1.1,9.8,69,0.00,,,0.00,WUHU216HW,2013-06-13 15:44:00,
2013-06-13 08:48:00,61.9,52.1,30.20,WNW,293,0.2,1.6,70,0.00,,,0.00,WUHU216HW,2013-06-13 15:48:00,
2013-06-13 08:49:00,61.9,52.1,30.20,WNW,293,0.2,1.6,70,0.00,,,0.00,WUHU216HW,2013-06-13 15:49:00,
2013-06-13 08:54:00,63.0,53.1,30.20,WNW,293,0.9,1.3,70,0.00,,,0.00,WUHU216HW,2013-06-13 15:54:00,
2013-06-13 08:59:00,63.4,52.2,30.20,West,270,0.0,1.3,67,0.00,,,0.00,WUHU216HW,2013-06-13 15:59:00,
2013-06-13 09:04:00,63.0,52.3,30.20,NW,315,0.0,1.3,68,0.00,,,0.00,WUHU216HW,2013-06-13 16:04:00,
2013-06-13 09:09:00,63.2,52.0,30.20,SSW,203,0.0,1.3,67,0.00,,,0.00,WUHU216HW,2013-06-13 16:09:00,
2013-06-13 09:10:00,63.2,52.0,30.20,South,180,0.0,1.3,67,0.00,,,0.00,WUHU216HW,2013-06-13 16:10:00,
2013-06-13 09:14:00,63.7,52.1,30.20,SSW,203,0.9,1.1,66,0.00,,,0.00,WUHU216HW,2013-06-13 16:14:00,
2013-06-13 09:15:00,63.7,52.1,30.20,SSW,203,0.9,1.1,66,0.00,,,0.00,WUHU216HW,2013-06-13 16:15:00,
2013-06-13 09:19:00,63.9,51.8,30.20,SSW,203,1.8,2.0,65,0.00,,,0.00,WUHU216HW,2013-06-13 16:19:00,
2013-06-13 09:20:00,63.9,51.8,30.20,SSW,203,1.8,2.0,65,0.00,,,0.00,WUHU216HW,2013-06-13 16:20:00,
2013-06-13 09:24:00,63.5,51.6,30.20,South,180,0.7,2.5,65,0.00,,,0.00,WUHU216HW,2013-06-13 16:24:00,
2013-06-13 09:25:00,63.5,51.6,30.20,South,180,0.7,2.5,65,0.00,,,0.00,WUHU216HW,2013-06-13 16:25:00,
2013-06-13 09:29:00,63.5,51.6,30.20,SW,225,1.1,2.5,65,0.00,,,0.00,WUHU216HW,2013-06-13 16:29:00,
2013-06-13 09:30:00,63.7,51.7,30.20,SW,225,1.1,2.5,65,0.00,,,0.00,WUHU216HW,2013-06-13 16:30:00,
2013-06-13 09:34:00,63.7,51.7,30.20,SSW,203,1.3,1.6,65,0.00,,,0.00,WUHU216HW,2013-06-13 16:34:00,
2013-06-13 09:35:00,63.7,51.7,30.20,SW,225,1.3,1.6,65,0.00,,,0.00,WUHU216HW,2013-06-13 16:35:00,
2013-06-13 09:39:00,63.7,51.3,30.20,South,180,1.6,2.0,64,0.00,,,0.00,WUHU216HW,2013-06-13 16:39:00,
2013-06-13 09:40:00,63.7,51.3,30.20,South,180,1.8,2.0,64,0.00,,,0.00,WUHU216HW,2013-06-13 16:40:00,
2013-06-13 09:41:00,63.7,51.3,30.20,SSW,203,1.3,2.0,64,0.00,,,0.00,WUHU216HW,2013-06-13 16:41:00,
2013-06-13 09:45:00,64.8,52.3,30.20,South,180,0.4,2.0,64,0.00,,,0.00,WUHU216HW,2013-06-13 16:45:00,
2013-06-13 09:46:00,65.2,52.7,30.20,SSW,203,1.3,2.0,64,0.00,,,0.00,WUHU216HW,2013-06-13 16:46:00,
2013-06-13 09:50:00,66.2,52.0,30.20,SSW,203,2.2,2.2,60,0.00,,,0.00,WUHU216HW,2013-06-13 16:50:00,
2013-06-13 09:51:00,66.2,52.0,30.20,SW,225,1.1,2.2,60,0.00,,,0.00,WUHU216HW,2013-06-13 16:51:00,
2013-06-13 09:55:00,65.3,51.9,30.20,WNW,293,3.4,5.1,62,0.00,,,0.00,WUHU216HW,2013-06-13 16:55:00,
2013-06-13 10:13:00,65.3,51.9,30.20,WNW,293,3.4,3.4,62,0.00,,,0.00,WUHU216HW,2013-06-13 17:13:00,
2013-06-13 10:18:00,65.3,51.9,30.20,WNW,293,3.4,3.4,62,0.00,,,0.00,WUHU216HW,2013-06-13 17:18:00,
2013-06-13 10:19:00,65.3,51.9,30.20,WNW,293,3.4,3.4,62,0.00,,,0.00,WUHU216HW,2013-06-13 17:19:00,
2013-06-13 10:46:00,60.1,51.1,30.21,NW,315,3.4,3.4,72,0.00,,,0.00,WUHU216HW,2013-06-13 17:46:00,
2013-06-13 10:51:00,60.1,50.8,30.21,NW,315,3.4,3.6,71,0.00,,,0.00,WUHU216HW,2013-06-13 17:51:00,
2013-06-13 10:56:00,60.5,50.8,30.21,NW,315,2.0,3.6,70,0.00,,,0.00,WUHU216HW,2013-06-13 17:56:00,
2013-06-13 11:01:00,60.8,50.7,30.21,West,270,0.2,2.9,69,0.00,,,0.00,WUHU216HW,2013-06-13 18:01:00,
2013-06-13 11:02:00,60.8,50.7,30.21,West,270,0.0,2.9,69,0.00,,,0.00,WUHU216HW,2013-06-13 18:02:00,
2013-06-13 11:03:00,61.0,50.9,30.21,West,270,0.0,2.0,69,0.00,,,0.00,WUHU216HW,2013-06-13 18:03:00,
2013-06-13 11:06:00,61.7,51.5,30.21,SSW,203,0.0,2.0,69,0.00,,,0.00,WUHU216HW,2013-06-13 18:06:00,
2013-06-13 11:07:00,62.3,51.6,30.21,WSW,248,0.0,1.8,68,0.00,,,0.00,WUHU216HW,2013-06-13 18:07:00,
2013-06-13 11:08:00,62.8,51.7,30.21,WSW,248,0.0,1.8,67,0.00,,,0.00,WUHU216HW,2013-06-13 18:08:00,
2013-06-13 11:12:00,65.9,53.7,30.21,SSW,203,0.9,0.9,65,0.00,,,0.00,WUHU216HW,2013-06-13 18:12:00,
2013-06-13 11:13:00,66.6,54.8,30.21,SSW,203,2.5,2.5,66,0.00,,,0.00,WUHU216HW,2013-06-13 18:13:00,
2013-06-13 11:17:00,69.1,53.2,30.21,South,180,0.7,2.5,57,0.00,,,0.00,WUHU216HW,2013-06-13 18:17:00,
2013-06-13 11:18:00,69.1,53.2,30.21,South,180,0.7,2.5,57,0.00,,,0.00,WUHU216HW,2013-06-13 18:18:00,
2013-06-13 11:19:00,69.1,53.2,30.21,South,180,0.7,2.5,57,0.00,,,0.00,WUHU216HW,2013-06-13 18:19:00,
2013-06-13 11:22:00,70.9,54.4,30.21,WSW,248,1.1,2.5,56,0.00,,,0.00,WUHU216HW,2013-06-13 18:22:00,
2013-06-13 11:23:00,71.3,52.2,30.21,SW,225,2.5,2.5,51,0.00,,,0.00,WUHU216HW,2013-06-13 18:23:00,
2013-06-13 11:24:00,71.3,52.2,30.21,SW,225,2.5,2.5,51,0.00,,,0.00,WUHU216HW,2013-06-13 18:24:00,
2013-06-13 11:27:00,73.4,57.2,30.22,WNW,293,2.2,2.5,57,0.00,,,0.00,WUHU216HW,2013-06-13 18:27:00,
2013-06-13 11:28:00,74.0,57.3,30.22,NW,315,2.0,2.5,56,0.00,,,0.00,WUHU216HW,2013-06-13 18:28:00,
2013-06-13 11:29:00,74.0,57.3,30.21,NW,315,2.0,2.5,56,0.00,,,0.00,WUHU216HW,2013-06-13 18:29:00,
2013-06-13 11:32:00,71.8,52.2,30.22,NW,315,5.4,5.8,50,0.00,,,0.00,WUHU216HW,2013-06-13 18:32:00,
2013-06-13 11:33:00,71.5,52.8,30.21,NW,315,5.4,5.8,52,0.00,,,0.00,WUHU216HW,2013-06-13 18:33:00,
2013-06-13 11:34:00,70.6,52.6,30.22,NW,315,5.4,5.8,53,0.00,,,0.00,WUHU216HW,2013-06-13 18:34:00,
2013-06-13 11:37:00,68.4,51.0,30.21,NW,315,4.7,5.8,54,0.00,,,0.00,WUHU216HW,2013-06-13 18:37:00,
2013-06-13 11:38:00,68.0,50.8,30.22,NW,315,4.7,5.8,54,0.00,,,0.00,WUHU216HW,2013-06-13 18:38:00,
2013-06-13 11:39:00,67.3,50.0,30.21,NW,315,3.8,5.8,54,0.00,,,0.00,WUHU216HW,2013-06-13 18:39:00,
2013-06-13 11:40:00,66.6,50.0,30.22,NNW,338,3.4,5.8,55,0.00,,,0.00,WUHU216HW,2013-06-13 18:40:00,
2013-06-13 11:42:00,65.9,50.2,30.21,NNW,338,2.5,5.4,57,0.00,,,0.00,WUHU216HW,2013-06-13 18:42:00,
2013-06-13 11:43:00,65.9,50.2,30.22,NNW,338,2.5,5.4,57,0.00,,,0.00,WUHU216HW,2013-06-13 18:43:00,
2013-06-13 11:44:00,65.7,50.5,30.22,NNW,338,2.9,5.4,58,0.00,,,0.00,WUHU216HW,2013-06-13 18:44:00,
2013-06-13 11:45:00,65.7,50.5,30.22,NW,315,2.2,4.7,58,0.00,,,0.00,WUHU216HW,2013-06-13 18:45:00,
2013-06-13 11:48:00,65.7,50.1,30.21,NNW,338,2.7,4.7,57,0.00,,,0.00,WUHU216HW,2013-06-13 18:48:00,
2013-06-13 11:49:00,65.7,50.1,30.22,North,0,0.9,3.4,57,0.00,,,0.00,WUHU216HW,2013-06-13 18:49:00,
2013-06-13 11:50:00,65.7,50.1,30.22,NNW,338,0.9,3.4,57,0.00,,,0.00,WUHU216HW,2013-06-13 18:50:00,
2013-06-13 11:53:00,65.9,50.2,30.21,North,0,0.0,2.9,57,0.00,,,0.00,WUHU216HW,2013-06-13 18:53:00,
2013-06-13 11:54:00,65.9,50.2,30.22,NNE,23,0.0,2.7,57,0.00,,,0.00,WUHU216HW,2013-06-13 18:54:00,
2013-06-13 11:56:00,66.1,50.4,30.22,WNW,293,0.4,2.7,57,0.00,,,0.00,WUHU216HW,2013-06-13 18:56:00,
2013-06-13 11:58:00,66.2,50.6,30.22,NW,315,0.4,2.7,57,0.00,,,0.00,WUHU216HW,2013-06-13 18:58:00,
2013-06-13 11:59:00,66.2,51.0,30.21,NNW,338,0.4,1.3,58,0.00,,,0.00,WUHU216HW,2013-06-13 18:59:00,
2013-06-13 12:02:00,66.4,51.2,30.22,NW,315,0.0,0.9,58,0.00,,,0.00,WUHU216HW,2013-06-13 19:02:00,
2013-06-13 12:03:00,66.4,51.2,30.22,NW,315,0.0,0.9,58,0.00,,,0.00,WUHU216HW,2013-06-13 19:03:00,
2013-06-13 12:12:00,68.9,50.1,30.21,South,180,5.4,5.6,51,0.00,,,0.00,WUHU216HW,2013-06-13 19:12:00,
2013-06-13 12:17:00,69.1,50.8,30.21,South,180,5.6,5.6,52,0.00,,,0.00,WUHU216HW,2013-06-13 19:17:00,
2013-06-13 12:18:00,69.1,50.8,30.21,South,180,5.6,5.6,52,0.00,,,0.00,WUHU216HW,2013-06-13 19:18:00,
2013-06-13 12:22:00,68.8,50.4,30.21,South,180,3.1,5.6,52,0.00,,,0.00,WUHU216HW,2013-06-13 19:22:00,
2013-06-13 12:23:00,68.8,50.4,30.21,South,180,3.1,5.6,52,0.00,,,0.00,WUHU216HW,2013-06-13 19:23:00,
2013-06-13 12:28:00,68.8,50.4,30.21,South,180,5.1,5.8,52,0.00,,,0.00,WUHU216HW,2013-06-13 19:28:00,
2013-06-13 12:33:00,69.7,50.8,30.21,SSE,158,5.1,6.0,51,0.00,,,0.00,WUHU216HW,2013-06-13 19:33:00,
2013-06-13 12:38:00,70.2,51.2,30.21,South,180,5.6,6.9,51,0.00,,,0.00,WUHU216HW,2013-06-13 19:38:00,
2013-06-13 12:39:00,70.2,51.2,30.21,South,180,4.5,6.9,51,0.00,,,0.00,WUHU216HW,2013-06-13 19:39:00,
2013-06-13 12:43:00,70.9,51.8,30.21,South,180,4.9,6.9,51,0.00,,,0.00,WUHU216HW,2013-06-13 19:43:00,
2013-06-13 12:44:00,71.3,51.7,30.21,South,180,4.0,6.9,50,0.00,,,0.00,WUHU216HW,2013-06-13 19:44:00,
2013-06-13 12:45:00,71.5,51.8,30.21,South,180,4.7,6.3,50,0.00,,,0.00,WUHU216HW,2013-06-13 19:45:00,
2013-06-13 12:48:00,72.2,51.3,30.21,South,180,2.5,6.3,48,0.00,,,0.00,WUHU216HW,2013-06-13 19:48:00,
2013-06-13 12:49:00,72.2,51.3,30.21,South,180,2.5,6.3,48,0.00,,,0.00,WUHU216HW,2013-06-13 19:49:00,
2013-06-13 12:50:00,72.7,51.9,30.21,South,180,3.4,6.3,48,0.00,,,0.00,WUHU216HW,2013-06-13 19:50:00,
2013-06-13 12:54:00,73.8,52.2,30.21,South,180,3.6,4.7,47,0.00,,,0.00,WUHU216HW,2013-06-13 19:54:00,
2013-06-13 12:55:00,74.3,52.8,30.21,South,180,4.0,4.7,47,0.00,,,0.00,WUHU216HW,2013-06-13 19:55:00,
2013-06-13 12:59:00,75.2,52.4,30.21,South,180,4.5,6.0,45,0.00,,,0.00,WUHU216HW,2013-06-13 19:59:00,
2013-06-13 13:00:00,75.2,52.4,30.21,South,180,3.6,6.0,45,0.00,,,0.00,WUHU216HW,2013-06-13 20:00:00,
2013-06-13 13:01:00,75.2,52.4,30.21,South,180,3.6,6.0,45,0.00,,,0.00,WUHU216HW,2013-06-13 20:01:00,
2013-06-13 13:04:00,75.4,51.3,30.21,SSE,158,3.8,6.0,43,0.00,,,0.00,WUHU216HW,2013-06-13 20:04:00,
2013-06-13 13:05:00,75.2,51.8,30.21,ESE,113,2.9,6.0,44,0.00,,,0.00,WUHU216HW,2013-06-13 20:05:00,
2013-06-13 13:06:00,75.2,50.6,30.21,ESE,113,4.9,6.0,42,0.00,,,0.00,WUHU216HW,2013-06-13 20:06:00,
2013-06-13 13:09:00,75.1,51.0,30.21,ENE,68,1.6,4.9,43,0.00,,,0.00,WUHU216HW,2013-06-13 20:09:00,
2013-06-13 13:10:00,75.1,51.0,30.21,ENE,68,1.6,4.9,43,0.00,,,0.00,WUHU216HW,2013-06-13 20:10:00,
2013-06-13 13:11:00,75.4,51.9,30.21,SSW,203,1.6,4.9,44,0.00,,,0.00,WUHU216HW,2013-06-13 20:11:00,
2013-06-13 13:14:00,76.7,53.1,30.20,SSW,203,1.8,4.9,44,0.00,,,0.00,WUHU216HW,2013-06-13 20:14:00,
2013-06-13 13:15:00,77.0,52.7,30.21,South,180,1.1,4.9,43,0.00,,,0.00,WUHU216HW,2013-06-13 20:15:00,
2013-06-13 13:16:00,77.9,53.6,30.21,South,180,2.0,4.9,43,0.00,,,0.00,WUHU216HW,2013-06-13 20:16:00,
2013-06-13 13:19:00,78.8,52.6,30.20,SSE,158,3.1,3.1,40,0.00,,,0.00,WUHU216HW,2013-06-13 20:19:00,
2013-06-13 13:20:00,78.5,52.8,30.20,South,180,4.7,4.7,41,0.00,,,0.00,WUHU216HW,2013-06-13 20:20:00,
2013-06-13 13:21:00,78.1,52.6,30.21,South,180,4.7,4.7,41,0.00,,,0.00,WUHU216HW,2013-06-13 20:21:00,
2013-06-13 13:24:00,77.4,52.5,30.20,SW,225,1.3,4.7,42,0.00,,,0.00,WUHU216HW,2013-06-13 20:24:00,
2013-06-13 13:25:00,77.4,52.5,30.21,SW,225,1.3,4.7,42,0.00,,,0.00,WUHU216HW,2013-06-13 20:25:00,
2013-06-13 13:26:00,77.8,52.8,30.20,South,180,3.8,4.7,42,0.00,,,0.00,WUHU216HW,2013-06-13 20:26:00,
2013-06-13 13:30:00,76.9,52.7,30.21,South,180,3.8,5.8,43,0.00,,,0.00,WUHU216HW,2013-06-13 20:30:00,
2013-06-13 13:31:00,76.9,52.7,30.21,South,180,3.8,5.8,43,0.00,,,0.00,WUHU216HW,2013-06-13 20:31:00,
2013-06-13 13:32:00,76.9,52.7,30.21,South,180,3.8,5.8,43,0.00,,,0.00,WUHU216HW,2013-06-13 20:32:00,
2013-06-13 13:35:00,74.2,51.4,30.21,South,180,5.8,5.8,45,0.00,,,0.00,WUHU216HW,2013-06-13 20:35:00,
2013-06-13 13:36:00,73.8,51.0,30.21,SSE,158,5.1,5.8,45,0.00,,,0.00,WUHU216HW,2013-06-13 20:36:00,
2013-06-13 13:37:00,73.6,50.9,30.21,SSE,158,4.0,6.3,45,0.00,,,0.00,WUHU216HW,2013-06-13 20:37:00,
2013-06-13 13:40:00,72.9,50.8,30.21,South,180,3.1,6.3,46,0.00,,,0.00,WUHU216HW,2013-06-13 20:40:00,
2013-06-13 13:41:00,72.5,50.5,30.21,SSW,203,2.7,6.3,46,0.00,,,0.00,WUHU216HW,2013-06-13 20:41:00,
2013-06-13 13:42:00,72.4,50.9,30.21,South,180,1.8,6.3,47,0.00,,,0.00,WUHU216HW,2013-06-13 20:42:00,
2013-06-13 13:45:00,72.0,50.6,30.21,South,180,3.8,6.3,47,0.00,,,0.00,WUHU216HW,2013-06-13 20:45:00,
2013-06-13 13:46:00,72.0,51.1,30.21,South,180,4.7,6.3,48,0.00,,,0.00,WUHU216HW,2013-06-13 20:46:00,
2013-06-13 13:48:00,72.2,50.8,30.21,SSW,203,3.6,6.3,47,0.00,,,0.00,WUHU216HW,2013-06-13 20:48:00,
2013-06-13 13:50:00,72.4,50.9,30.21,South,180,4.5,6.3,47,0.00,,,0.00,WUHU216HW,2013-06-13 20:50:00,
2013-06-13 13:51:00,72.5,51.0,30.21,South,180,5.1,6.3,47,0.00,,,0.00,WUHU216HW,2013-06-13 20:51:00,
2013-06-13 13:53:00,72.9,50.8,30.21,South,180,4.9,6.3,46,0.00,,,0.00,WUHU216HW,2013-06-13 20:53:00,
2013-06-13 13:55:00,73.3,51.1,30.21,South,180,2.9,5.6,46,0.00,,,0.00,WUHU216HW,2013-06-13 20:55:00,
2013-06-13 13:56:00,73.3,51.1,30.21,South,180,2.9,5.6,46,0.00,,,0.00,WUHU216HW,2013-06-13 20:56:00,
2013-06-13 13:58:00,73.4,51.3,30.21,South,180,2.7,5.6,46,0.00,,,0.00,WUHU216HW,2013-06-13 20:58:00,
2013-06-13 14:01:00,73.4,51.3,30.21,South,180,1.1,5.6,46,0.00,,,0.00,WUHU216HW,2013-06-13 21:01:00,
2013-06-13 14:02:00,73.6,51.5,30.21,South,180,1.1,5.6,46,0.00,,,0.00,WUHU216HW,2013-06-13 21:02:00,
2013-06-13 14:04:00,74.2,50.1,30.21,West,270,1.3,3.6,43,0.00,,,0.00,WUHU216HW,2013-06-13 21:04:00,
2013-06-13 14:06:00,75.1,52.2,30.21,NNW,338,1.1,3.6,45,0.00,,,0.00,WUHU216HW,2013-06-13 21:06:00,
2013-06-13 14:07:00,75.6,52.8,30.21,North,0,0.4,3.6,45,0.00,,,0.00,WUHU216HW,2013-06-13 21:07:00,
2013-06-13 14:09:00,77.0,54.0,30.21,WNW,293,1.1,3.6,45,0.00,,,0.00,WUHU216HW,2013-06-13 21:09:00,
2013-06-13 14:11:00,78.1,54.4,30.21,NNW,338,2.5,2.5,44,0.00,,,0.00,WUHU216HW,2013-06-13 21:11:00,
2013-06-13 14:12:00,78.7,54.3,30.21,North,0,4.0,4.0,43,0.00,,,0.00,WUHU216HW,2013-06-13 21:12:00,
2013-06-13 14:13:00,78.8,52.6,30.21,North,0,2.7,4.0,40,0.00,,,0.00,WUHU216HW,2013-06-13 21:13:00,
2013-06-13 14:14:00,79.2,53.5,30.21,SW,225,0.0,4.0,41,0.00,,,0.00,WUHU216HW,2013-06-13 21:14:00,
2013-06-13 14:16:00,79.0,51.9,30.21,West,270,1.3,4.0,39,0.00,,,0.00,WUHU216HW,2013-06-13 21:16:00,
2013-06-13 14:17:00,79.0,51.9,30.21,West,270,1.3,4.0,39,0.00,,,0.00,WUHU216HW,2013-06-13 21:17:00,
2013-06-13 14:18:00,79.0,51.9,30.21,NW,315,1.8,4.0,39,0.00,,,0.00,WUHU216HW,2013-06-13 21:18:00,
2013-06-13 14:19:00,79.0,51.9,30.21,NW,315,3.8,4.0,39,0.00,,,0.00,WUHU216HW,2013-06-13 21:19:00,
2013-06-13 14:22:00,78.8,51.8,30.21,NW,315,2.9,4.0,39,0.00,,,0.00,WUHU216HW,2013-06-13 21:22:00,
2013-06-13 14:23:00,78.5,50.7,30.21,NW,315,3.1,3.8,38,0.00,,,0.00,WUHU216HW,2013-06-13 21:23:00,
2013-06-13 14:25:00,78.1,51.1,30.21,NW,315,2.0,3.8,39,0.00,,,0.00,WUHU216HW,2013-06-13 21:25:00,
2013-06-13 14:27:00,78.1,51.1,30.21,NW,315,2.0,3.8,39,0.00,,,0.00,WUHU216HW,2013-06-13 21:27:00,
2013-06-13 14:28:00,77.2,49.6,30.21,NW,315,4.0,4.0,38,0.00,,,0.00,WUHU216HW,2013-06-13 21:28:00,
2013-06-13 14:29:00,77.0,48.7,30.21,NW,315,2.2,4.0,37,0.00,,,0.00,WUHU216HW,2013-06-13 21:29:00,
2013-06-13 14:30:00,76.3,48.8,30.21,NW,315,3.1,4.0,38,0.00,,,0.00,WUHU216HW,2013-06-13 21:30:00,
2013-06-13 14:32:00,75.8,49.1,30.21,NW,315,4.7,5.4,39,0.00,,,0.00,WUHU216HW,2013-06-13 21:32:00,
2013-06-13 14:33:00,75.4,49.5,30.21,NW,315,4.3,5.4,40,0.00,,,0.00,WUHU216HW,2013-06-13 21:33:00,
2013-06-13 14:34:00,75.2,49.3,30.21,NW,315,4.3,5.4,40,0.00,,,0.00,WUHU216HW,2013-06-13 21:34:00,
2013-06-13 14:35:00,74.9,49.6,30.21,NW,315,4.9,5.8,41,0.00,,,0.00,WUHU216HW,2013-06-13 21:35:00,
2013-06-13 14:37:00,74.5,49.9,30.21,NW,315,5.4,5.8,42,0.00,,,0.00,WUHU216HW,2013-06-13 21:37:00,
2013-06-13 14:38:00,74.0,48.8,30.21,NNW,338,7.2,7.2,41,0.00,,,0.00,WUHU216HW,2013-06-13 21:38:00,
2013-06-13 14:40:00,73.8,50.4,30.21,NNW,338,3.8,7.2,44,0.00,,,0.00,WUHU216HW,2013-06-13 21:40:00,
2013-06-13 14:42:00,72.9,49.0,30.21,NW,315,4.7,7.2,43,0.00,,,0.00,WUHU216HW,2013-06-13 21:42:00,
2013-06-13 14:43:00,72.7,48.2,30.21,NNW,338,5.4,7.2,42,0.00,,,0.00,WUHU216HW,2013-06-13 21:43:00,
2013-06-13 14:44:00,72.7,48.2,30.21,NNW,338,5.4,7.2,42,0.00,,,0.00,WUHU216HW,2013-06-13 21:44:00,
2013-06-13 14:45:00,72.7,48.2,30.21,NNW,338,4.9,7.2,42,0.00,,,0.00,WUHU216HW,2013-06-13 21:45:00,
2013-06-13 14:47:00,72.4,47.9,30.21,NW,315,7.2,7.2,42,0.00,,,0.00,WUHU216HW,2013-06-13 21:47:00,
2013-06-13 14:48:00,72.0,48.8,30.21,WNW,293,3.1,7.2,44,0.00,,,0.00,WUHU216HW,2013-06-13 21:48:00,
2013-06-13 14:49:00,72.0,48.8,30.21,WNW,293,3.1,7.2,44,0.00,,,0.00,WUHU216HW,2013-06-13 21:49:00,
2013-06-13 14:50:00,71.8,48.6,30.21,NW,315,5.4,7.2,44,0.00,,,0.00,WUHU216HW,2013-06-13 21:50:00,
2013-06-13 14:52:00,71.6,47.3,30.21,NW,315,4.7,7.2,42,0.00,,,0.00,WUHU216HW,2013-06-13 21:52:00,
2013-06-13 14:53:00,71.6,47.3,30.21,NW,315,4.7,7.2,42,0.00,,,0.00,WUHU216HW,2013-06-13 21:53:00,
2013-06-13 14:54:00,71.5,48.3,30.21,NW,315,4.7,7.2,44,0.00,,,0.00,WUHU216HW,2013-06-13 21:54:00,
2013-06-13 14:55:00,71.3,48.2,30.21,NW,315,3.4,7.2,44,0.00,,,0.00,WUHU216HW,2013-06-13 21:55:00,
2013-06-13 14:58:00,71.5,48.3,30.21,WNW,293,5.1,6.5,44,0.00,,,0.00,WUHU216HW,2013-06-13 21:58:00,
2013-06-13 14:59:00,71.5,48.3,30.21,NNW,338,5.8,6.5,44,0.00,,,0.00,WUHU216HW,2013-06-13 21:59:00,
2013-06-13 15:00:00,71.5,48.9,30.21,NW,315,4.7,6.5,45,0.00,,,0.00,WUHU216HW,2013-06-13 22:00:00,
2013-06-13 15:03:00,71.6,48.4,30.21,NW,315,6.3,6.5,44,0.00,,,0.00,WUHU216HW,2013-06-13 22:03:00,
2013-06-13 15:04:00,71.8,49.2,30.21,NW,315,7.6,7.8,45,0.00,,,0.00,WUHU216HW,2013-06-13 22:04:00,
2013-06-13 15:05:00,71.6,47.9,30.21,NW,315,4.9,7.8,43,0.00,,,0.00,WUHU216HW,2013-06-13 22:05:00,
2013-06-13 15:08:00,71.1,46.8,30.21,NW,315,4.7,7.8,42,0.00,,,0.00,WUHU216HW,2013-06-13 22:08:00,
2013-06-13 15:09:00,70.9,47.8,30.21,WNW,293,3.1,7.8,44,0.00,,,0.00,WUHU216HW,2013-06-13 22:09:00,
2013-06-13 15:10:00,70.9,47.3,30.21,NW,315,1.6,7.8,43,0.00,,,0.00,WUHU216HW,2013-06-13 22:10:00,
2013-06-13 15:13:00,72.2,49.0,30.21,NNW,338,3.8,7.6,44,0.00,,,0.00,WUHU216HW,2013-06-13 22:13:00,
2013-06-13 15:14:00,72.5,49.9,30.21,NW,315,6.9,7.4,45,0.00,,,0.00,WUHU216HW,2013-06-13 22:14:00,
2013-06-13 15:15:00,72.5,49.2,30.21,NW,315,5.4,7.4,44,0.00,,,0.00,WUHU216HW,2013-06-13 22:15:00,
2013-06-13 15:16:00,72.5,49.2,30.21,NW,315,5.4,7.4,44,0.00,,,0.00,WUHU216HW,2013-06-13 22:16:00,
2013-06-13 15:18:00,72.2,49.0,30.21,NW,315,4.3,7.4,44,0.00,,,0.00,WUHU216HW,2013-06-13 22:18:00,
2013-06-13 15:19:00,72.0,49.4,30.21,NW,315,3.4,7.4,45,0.00,,,0.00,WUHU216HW,2013-06-13 22:19:00,
2013-06-13 15:20:00,72.2,48.3,30.21,NW,315,4.0,7.4,43,0.00,,,0.00,WUHU216HW,2013-06-13 22:20:00,
2013-06-13 15:21:00,72.0,47.0,30.21,NW,315,5.1,7.4,41,0.00,,,0.00,WUHU216HW,2013-06-13 22:21:00,
2013-06-13 15:23:00,72.5,49.2,30.21,NW,315,4.0,7.4,44,0.00,,,0.00,WUHU216HW,2013-06-13 22:23:00,
2013-06-13 15:25:00,72.9,49.0,30.21,WNW,293,4.0,6.3,43,0.00,,,0.00,WUHU216HW,2013-06-13 22:25:00,
2013-06-13 15:26:00,73.1,48.6,30.20,NW,315,4.3,6.3,42,0.00,,,0.00,WUHU216HW,2013-06-13 22:26:00,
2013-06-13 15:28:00,72.7,48.9,30.20,NW,315,4.7,6.3,43,0.00,,,0.00,WUHU216HW,2013-06-13 22:28:00,
2013-06-13 15:29:00,72.7,48.9,30.20,NW,315,4.7,6.3,43,0.00,,,0.00,WUHU216HW,2013-06-13 22:29:00,
2013-06-13 15:30:00,72.4,48.5,30.20,NW,315,6.0,6.3,43,0.00,,,0.00,WUHU216HW,2013-06-13 22:30:00,
2013-06-13 15:31:00,72.0,49.4,30.21,NW,315,5.1,6.3,45,0.00,,,0.00,WUHU216HW,2013-06-13 22:31:00,
2013-06-13 15:32:00,72.0,48.8,30.21,WNW,293,5.4,6.3,44,0.00,,,0.00,WUHU216HW,2013-06-13 22:32:00,
2013-06-13 15:34:00,72.0,49.4,30.21,NW,315,4.7,6.0,45,0.00,,,0.00,WUHU216HW,2013-06-13 22:34:00,
2013-06-13 15:35:00,72.0,48.8,30.21,NW,315,4.7,6.0,44,0.00,,,0.00,WUHU216HW,2013-06-13 22:35:00,
2013-06-13 15:36:00,72.0,48.8,30.21,NW,315,3.4,6.0,44,0.00,,,0.00,WUHU216HW,2013-06-13 22:36:00,
2013-06-13 15:37:00,72.2,48.3,30.20,NW,315,3.6,6.0,43,0.00,,,0.00,WUHU216HW,2013-06-13 22:37:00,
2013-06-13 15:39:00,72.4,49.2,30.20,NW,315,3.6,6.0,44,0.00,,,0.00,WUHU216HW,2013-06-13 22:39:00,
2013-06-13 15:40:00,72.7,48.2,30.20,WNW,293,4.0,5.4,42,0.00,,,0.00,WUHU216HW,2013-06-13 22:40:00,
2013-06-13 15:41:00,72.7,48.9,30.20,NW,315,5.1,5.4,43,0.00,,,0.00,WUHU216HW,2013-06-13 22:41:00,
2013-06-13 15:42:00,72.7,48.2,30.20,WNW,293,4.7,5.4,42,0.00,,,0.00,WUHU216HW,2013-06-13 22:42:00,
2013-06-13 15:44:00,72.9,48.4,30.21,WNW,293,4.7,5.4,42,0.00,,,0.00,WUHU216HW,2013-06-13 22:44:00,
2013-06-13 15:45:00,72.7,49.4,30.20,NW,315,5.4,5.4,44,0.00,,,0.00,WUHU216HW,2013-06-13 22:45:00,
2013-06-13 15:46:00,72.7,48.9,30.21,NW,315,3.8,5.4,43,0.00,,,0.00,WUHU216HW,2013-06-13 22:46:00,
2013-06-13 15:47:00,72.7,47.6,30.20,NNW,338,2.5,5.4,41,0.00,,,0.00,WUHU216HW,2013-06-13 22:47:00,
2013-06-13 15:49:00,73.1,48.6,30.21,NW,315,4.7,5.4,42,0.00,,,0.00,WUHU216HW,2013-06-13 22:49:00,
2013-06-13 15:50:00,73.3,49.3,30.21,NW,315,4.9,5.4,43,0.00,,,0.00,WUHU216HW,2013-06-13 22:50:00,
2013-06-13 15:51:00,73.3,48.7,30.20,NW,315,4.3,5.4,42,0.00,,,0.00,WUHU216HW,2013-06-13 22:51:00,
2013-06-13 15:52:00,73.1,48.0,30.20,NW,315,4.5,5.4,41,0.00,,,0.00,WUHU216HW,2013-06-13 22:52:00,
2013-06-13 15:54:00,73.1,48.0,30.20,NW,315,4.5,5.4,41,0.00,,,0.00,WUHU216HW,2013-06-13 22:54:00,
2013-06-13 15:55:00,73.1,48.0,30.20,NW,315,4.5,5.4,41,0.00,,,0.00,WUHU216HW,2013-06-13 22:55:00,
2013-06-13 15:56:00,73.1,46.6,30.20,NW,315,3.4,4.9,39,0.00,,,0.00,WUHU216HW,2013-06-13 22:56:00,
2013-06-13 15:57:00,73.1,48.0,30.20,NW,315,3.4,4.9,41,0.00,,,0.00,WUHU216HW,2013-06-13 22:57:00,
2013-06-13 15:58:00,73.6,48.4,30.20,NW,315,2.2,4.9,41,0.00,,,0.00,WUHU216HW,2013-06-13 22:58:00,
2013-06-13 16:00:00,74.2,49.0,30.20,WNW,293,2.7,4.9,41,0.00,,,0.00,WUHU216HW,2013-06-13 23:00:00,
2013-06-13 16:01:00,74.9,49.0,30.20,NW,315,3.4,4.5,40,0.00,,,0.00,WUHU216HW,2013-06-13 23:01:00,
2013-06-13 16:02:00,74.9,49.0,30.20,NW,315,3.4,4.5,40,0.00,,,0.00,WUHU216HW,2013-06-13 23:02:00,
2013-06-13 16:03:00,74.9,49.0,30.20,NW,315,3.4,4.5,40,0.00,,,0.00,WUHU216HW,2013-06-13 23:03:00,
2013-06-13 16:05:00,74.9,49.0,30.20,NW,315,3.4,4.5,40,0.00,,,0.00,WUHU216HW,2013-06-13 23:05:00,
2013-06-13 16:07:00,77.9,51.0,30.20,WNW,293,3.6,3.6,39,0.00,,,0.00,WUHU216HW,2013-06-13 23:07:00,
2013-06-13 16:08:00,78.8,50.2,30.20,WNW,293,3.4,5.4,37,0.00,,,0.00,WUHU216HW,2013-06-13 23:08:00,
2013-06-13 16:10:00,78.8,49.5,30.20,WNW,293,3.6,5.4,36,0.00,,,0.00,WUHU216HW,2013-06-13 23:10:00,
2013-06-13 16:12:00,77.9,45.6,30.20,SW,225,4.5,5.6,32,0.00,,,0.00,WUHU216HW,2013-06-13 23:12:00,
2013-06-13 16:14:00,76.3,46.5,30.20,NW,315,4.0,5.6,35,0.00,,,0.00,WUHU216HW,2013-06-13 23:14:00,
2013-06-13 16:15:00,75.8,46.8,30.20,WNW,293,3.6,5.6,36,0.00,,,0.00,WUHU216HW,2013-06-13 23:15:00,
2013-06-13 16:17:00,75.4,48.0,30.20,NW,315,6.0,6.0,38,0.00,,,0.00,WUHU216HW,2013-06-13 23:17:00,
2013-06-13 16:19:00,74.9,48.2,30.20,NW,315,6.5,7.6,39,0.00,,,0.00,WUHU216HW,2013-06-13 23:19:00,
2013-06-13 16:20:00,74.9,49.0,30.20,NNW,338,3.8,7.6,40,0.00,,,0.00,WUHU216HW,2013-06-13 23:20:00,
2013-06-13 16:21:00,74.9,48.2,30.20,NNW,338,3.8,7.6,39,0.00,,,0.00,WUHU216HW,2013-06-13 23:21:00,
2013-06-13 16:22:00,74.7,48.9,30.20,NW,315,7.8,7.8,40,0.00,,,0.00,WUHU216HW,2013-06-13 23:22:00,
2013-06-13 16:24:00,73.8,49.2,30.20,NW,315,8.3,8.7,42,0.00,,,0.00,WUHU216HW,2013-06-13 23:24:00,
2013-06-13 16:25:00,73.8,49.9,30.20,NW,315,6.7,8.7,43,0.00,,,0.00,WUHU216HW,2013-06-13 23:25:00,
2013-06-13 16:26:00,72.7,47.6,30.20,NW,315,7.2,8.7,41,0.00,,,0.00,WUHU216HW,2013-06-13 23:26:00,
2013-06-13 16:27:00,72.2,47.8,30.20,NW,315,6.9,8.7,42,0.00,,,0.00,WUHU216HW,2013-06-13 23:27:00,
2013-06-13 16:29:00,71.3,47.5,30.20,NW,315,5.4,8.7,43,0.00,,,0.00,WUHU216HW,2013-06-13 23:29:00,
2013-06-13 16:30:00,71.1,47.3,30.20,NW,315,6.0,8.7,43,0.00,,,0.00,WUHU216HW,2013-06-13 23:30:00,
2013-06-13 16:31:00,70.9,47.8,30.20,NW,315,5.1,8.7,44,0.00,,,0.00,WUHU216HW,2013-06-13 23:31:00,
2013-06-13 16:32:00,70.9,47.8,30.20,NW,315,4.0,8.7,44,0.00,,,0.00,WUHU216HW,2013-06-13 23:32:00,
2013-06-13 16:34:00,70.7,45.9,30.20,NW,315,5.4,7.2,41,0.00,,,0.00,WUHU216HW,2013-06-13 23:34:00,
2013-06-13 16:35:00,70.6,46.3,30.20,NNW,338,2.9,7.2,42,0.00,,,0.00,WUHU216HW,2013-06-13 23:35:00,
2013-06-13 16:36:00,70.6,46.3,30.20,NNW,338,2.9,7.2,42,0.00,,,0.00,WUHU216HW,2013-06-13 23:36:00,
2013-06-13 16:37:00,70.6,46.3,30.20,NNW,338,2.9,6.9,42,0.00,,,0.00,WUHU216HW,2013-06-13 23:37:00,
2013-06-13 16:39:00,70.6,46.3,30.20,NNW,338,2.9,6.0,42,0.00,,,0.00,WUHU216HW,2013-06-13 23:39:00,
2013-06-13 16:41:00,71.6,46.7,30.20,NW,315,2.9,5.4,41,0.00,,,0.00,WUHU216HW,2013-06-13 23:41:00,
2013-06-13 16:42:00,72.4,47.9,30.20,NW,315,2.2,5.4,42,0.00,,,0.00,WUHU216HW,2013-06-13 23:42:00,
2013-06-13 16:43:00,72.5,48.1,30.20,NW,315,2.2,5.4,42,0.00,,,0.00,WUHU216HW,2013-06-13 23:43:00,
2013-06-13 16:45:00,73.1,49.1,30.20,NW,315,4.5,5.4,43,0.00,,,0.00,WUHU216HW,2013-06-13 23:45:00,
2013-06-13 16:46:00,72.9,47.8,30.20,NW,315,2.9,4.5,41,0.00,,,0.00,WUHU216HW,2013-06-13 23:46:00,
2013-06-13 16:47:00,72.5,48.1,30.20,NW,315,5.4,5.4,42,0.00,,,0.00,WUHU216HW,2013-06-13 23:47:00,
2013-06-13 16:48:00,72.5,48.1,30.20,NW,315,5.4,5.4,42,0.00,,,0.00,WUHU216HW,2013-06-13 23:48:00,
2013-06-13 16:50:00,72.5,48.1,30.20,NW,315,5.4,5.4,42,0.00,,,0.00,WUHU216HW,2013-06-13 23:50:00,
2013-06-13 16:51:00,71.6,46.7,30.21,NW,315,3.6,5.4,41,0.00,,,0.00,WUHU216HW,2013-06-13 23:51:00,
2013-06-13 16:53:00,71.6,48.4,30.20,NNW,338,8.1,8.1,44,0.00,,,0.00,WUHU216HW,2013-06-13 23:53:00,
2013-06-13 16:55:00,71.3,47.0,30.20,NNW,338,3.8,8.1,42,0.00,,,0.00,WUHU216HW,2013-06-13 23:55:00,
2013-06-13 16:56:00,71.5,47.7,30.20,NW,315,4.0,8.1,43,0.00,,,0.00,WUHU216HW,2013-06-13 23:56:00,
2013-06-13 16:57:00,71.5,47.7,30.20,NW,315,4.0,8.1,43,0.00,,,0.00,WUHU216HW,2013-06-13 23:57:00,
2013-06-13 16:58:00,71.5,48.9,30.21,NW,315,9.8,9.8,45,0.00,,,0.00,WUHU216HW,2013-06-13 23:58:00,
2013-06-13 17:01:00,70.9,48.4,30.21,NW,315,5.4,9.8,45,0.00,,,0.00,WUHU216HW,2013-06-14 00:01:00,
2013-06-13 17:02:00,70.7,48.9,30.21,NW,315,5.8,9.8,46,0.00,,,0.00,WUHU216HW,2013-06-14 00:02:00,
2013-06-13 17:03:00,70.6,48.7,30.21,NW,315,7.4,9.8,46,0.00,,,0.00,WUHU216HW,2013-06-14 00:03:00,
2013-06-13 17:06:00,70.4,48.5,30.21,NNW,338,3.8,9.8,46,0.00,,,0.00,WUHU216HW,2013-06-14 00:06:00,
2013-06-13 17:07:00,70.4,48.5,30.21,NNW,338,3.8,9.8,46,0.00,,,0.00,WUHU216HW,2013-06-14 00:07:00,
2013-06-13 17:08:00,70.4,48.5,30.21,NNW,338,3.8,9.8,46,0.00,,,0.00,WUHU216HW,2013-06-14 00:08:00,
2013-06-13 17:11:00,71.3,48.2,30.21,NW,315,6.0,7.6,44,0.00,,,0.00,WUHU216HW,2013-06-14 00:11:00,
2013-06-13 17:12:00,71.1,47.3,30.20,NW,315,5.6,7.6,43,0.00,,,0.00,WUHU216HW,2013-06-14 00:12:00,
2013-06-13 17:13:00,71.1,46.8,30.20,NNW,338,2.9,6.7,42,0.00,,,0.00,WUHU216HW,2013-06-14 00:13:00,
2013-06-13 17:16:00,71.5,47.1,30.20,NW,315,6.9,7.8,42,0.00,,,0.00,WUHU216HW,2013-06-14 00:16:00,
2013-06-13 17:17:00,71.5,48.9,30.20,NW,315,11.6,11.6,45,0.00,,,0.00,WUHU216HW,2013-06-14 00:17:00,
2013-06-13 17:18:00,71.5,48.9,30.20,NW,315,11.6,11.6,45,0.00,,,0.00,WUHU216HW,2013-06-14 00:18:00,
2013-06-13 17:21:00,71.1,46.8,30.20,NNW,338,4.5,11.6,42,0.00,,,0.00,WUHU216HW,2013-06-14 00:21:00,
2013-06-13 17:22:00,70.9,47.8,30.20,NW,315,5.6,11.6,44,0.00,,,0.00,WUHU216HW,2013-06-14 00:22:00,
2013-06-13 17:23:00,70.7,48.2,30.20,NW,315,6.9,11.6,45,0.00,,,0.00,WUHU216HW,2013-06-14 00:23:00,
2013-06-13 17:26:00,70.2,47.8,30.20,NNW,338,6.7,11.6,45,0.00,,,0.00,WUHU216HW,2013-06-14 00:26:00,
2013-06-13 17:27:00,70.0,47.6,30.21,NW,315,6.9,11.6,45,0.00,,,0.00,WUHU216HW,2013-06-14 00:27:00,
2013-06-13 17:28:00,70.0,47.6,30.21,NW,315,6.9,11.6,45,0.00,,,0.00,WUHU216HW,2013-06-14 00:28:00,
2013-06-13 17:29:00,70.0,48.2,30.21,NNW,338,6.3,11.6,46,0.00,,,0.00,WUHU216HW,2013-06-14 00:29:00,
2013-06-13 17:31:00,70.2,48.3,30.21,NW,315,6.7,8.1,46,0.00,,,0.00,WUHU216HW,2013-06-14 00:31:00,
2013-06-13 17:32:00,70.2,48.3,30.21,NNW,338,5.6,8.1,46,0.00,,,0.00,WUHU216HW,2013-06-14 00:32:00,
2013-06-13 17:33:00,70.2,49.0,30.21,NW,315,6.7,8.1,47,0.00,,,0.00,WUHU216HW,2013-06-14 00:33:00,
2013-06-13 17:34:00,70.2,48.3,30.21,NNW,338,6.3,8.1,46,0.00,,,0.00,WUHU216HW,2013-06-14 00:34:00,
2013-06-13 17:37:00,70.2,48.3,30.21,NW,315,5.1,8.1,46,0.00,,,0.00,WUHU216HW,2013-06-14 00:37:00,
2013-06-13 17:38:00,70.2,48.3,30.21,NW,315,5.1,8.1,46,0.00,,,0.00,WUHU216HW,2013-06-14 00:38:00,
2013-06-13 17:39:00,70.2,48.3,30.21,NW,315,5.1,8.1,46,0.00,,,0.00,WUHU216HW,2013-06-14 00:39:00,
2013-06-13 17:42:00,71.1,50.3,30.20,NW,315,6.5,6.7,48,0.00,,,0.00,WUHU216HW,2013-06-14 00:42:00,
2013-06-13 17:43:00,71.1,48.0,30.21,NW,315,8.5,8.5,44,0.00,,,0.00,WUHU216HW,2013-06-14 00:43:00,
2013-06-13 17:44:00,70.9,48.4,30.21,NW,315,6.7,8.5,45,0.00,,,0.00,WUHU216HW,2013-06-14 00:44:00,
2013-06-13 17:48:00,70.9,49.0,30.21,NW,315,5.4,8.5,46,0.00,,,0.00,WUHU216HW,2013-06-14 00:48:00,
2013-06-13 17:49:00,70.9,49.0,30.21,NW,315,5.4,8.5,46,0.00,,,0.00,WUHU216HW,2013-06-14 00:49:00,
2013-06-13 17:53:00,70.2,50.1,30.21,NW,315,5.4,8.5,49,0.00,,,0.00,WUHU216HW,2013-06-14 00:53:00,
2013-06-13 17:54:00,70.2,50.1,30.21,NW,315,5.4,7.4,49,0.00,,,0.00,WUHU216HW,2013-06-14 00:54:00,
2013-06-13 17:58:00,70.0,50.0,30.21,NW,315,4.7,7.4,49,0.00,,,0.00,WUHU216HW,2013-06-14 00:58:00,
2013-06-13 17:59:00,70.0,50.0,30.21,NW,315,4.7,7.4,49,0.00,,,0.00,WUHU216HW,2013-06-14 00:59:00,
2013-06-13 18:03:00,70.2,49.5,30.21,WNW,293,3.1,5.4,48,0.00,,,0.00,WUHU216HW,2013-06-14 01:03:00,
2013-06-13 18:04:00,70.2,49.5,30.21,WNW,293,3.1,5.4,48,0.00,,,0.00,WUHU216HW,2013-06-14 01:04:00,
2013-06-13 18:05:00,70.9,50.2,30.21,NW,315,5.4,5.4,48,0.00,,,0.00,WUHU216HW,2013-06-14 01:05:00,
2013-06-13 18:08:00,70.9,50.2,30.21,NW,315,5.4,5.4,48,0.00,,,0.00,WUHU216HW,2013-06-14 01:08:00,
2013-06-13 18:09:00,70.6,50.5,30.21,NW,315,4.0,5.4,49,0.00,,,0.00,WUHU216HW,2013-06-14 01:09:00,
2013-06-13 18:10:00,70.6,50.5,30.21,NW,315,4.0,5.4,49,0.00,,,0.00,WUHU216HW,2013-06-14 01:10:00,
2013-06-13 18:13:00,70.6,50.5,30.21,NW,315,3.4,5.4,49,0.00,,,0.00,WUHU216HW,2013-06-14 01:13:00,
2013-06-13 18:14:00,70.6,50.5,30.21,NW,315,3.4,5.4,49,0.00,,,0.00,WUHU216HW,2013-06-14 01:14:00,
2013-06-13 18:16:00,70.6,50.5,30.21,NW,315,3.4,5.4,49,0.00,,,0.00,WUHU216HW,2013-06-14 01:16:00,
2013-06-13 18:18:00,70.4,50.3,30.21,WNW,293,6.0,6.0,49,0.00,,,0.00,WUHU216HW,2013-06-14 01:18:00,
2013-06-13 18:19:00,70.4,50.3,30.21,WNW,293,6.0,6.0,49,0.00,,,0.00,WUHU216HW,2013-06-14 01:19:00,
2013-06-13 18:21:00,69.7,49.1,30.21,WNW,293,4.7,6.0,48,0.00,,,0.00,WUHU216HW,2013-06-14 01:21:00,
2013-06-13 18:23:00,69.5,49.5,30.21,NW,315,4.3,6.0,49,0.00,,,0.00,WUHU216HW,2013-06-14 01:23:00,
2013-06-13 18:24:00,69.5,49.5,30.22,NW,315,4.3,6.0,49,0.00,,,0.00,WUHU216HW,2013-06-14 01:24:00,
2013-06-13 18:26:00,69.5,50.6,30.21,NW,315,6.5,6.5,51,0.00,,,0.00,WUHU216HW,2013-06-14 01:26:00,
2013-06-13 18:28:00,69.5,50.0,30.21,NW,315,5.8,6.7,50,0.00,,,0.00,WUHU216HW,2013-06-14 01:28:00,
2013-06-13 18:29:00,69.5,50.0,30.21,NW,315,5.8,6.7,50,0.00,,,0.00,WUHU216HW,2013-06-14 01:29:00,
2013-06-13 18:30:00,69.5,50.0,30.21,NW,315,5.8,6.7,50,0.00,,,0.00,WUHU216HW,2013-06-14 01:30:00,
2013-06-13 18:31:00,69.5,50.0,30.22,NW,315,5.8,6.7,50,0.00,,,0.00,WUHU216HW,2013-06-14 01:31:00,
2013-06-13 18:34:00,68.8,48.2,30.22,NW,315,6.5,6.7,48,0.00,,,0.00,WUHU216HW,2013-06-14 01:34:00,
2013-06-13 18:35:00,68.8,48.2,30.21,NW,315,6.5,6.7,48,0.00,,,0.00,WUHU216HW,2013-06-14 01:35:00,
2013-06-13 18:36:00,68.8,48.2,30.21,NW,315,6.5,6.7,48,0.00,,,0.00,WUHU216HW,2013-06-14 01:36:00,
2013-06-13 18:39:00,68.4,49.6,30.21,NW,315,7.6,7.6,51,0.00,,,0.00,WUHU216HW,2013-06-14 01:39:00,
2013-06-13 18:40:00,68.4,49.6,30.21,NW,315,7.6,7.6,51,0.00,,,0.00,WUHU216HW,2013-06-14 01:40:00,
2013-06-13 18:41:00,68.2,50.0,30.21,WNW,293,4.3,7.6,52,0.00,,,0.00,WUHU216HW,2013-06-14 01:41:00,
2013-06-13 18:44:00,68.2,50.0,30.22,WNW,293,4.3,7.6,52,0.00,,,0.00,WUHU216HW,2013-06-14 01:44:00,
2013-06-13 18:45:00,68.4,51.0,30.21,NW,315,6.5,7.6,54,0.00,,,0.00,WUHU216HW,2013-06-14 01:45:00,
2013-06-13 18:47:00,68.4,50.6,30.21,NW,315,5.4,7.6,53,0.00,,,0.00,WUHU216HW,2013-06-14 01:47:00,
2013-06-13 18:49:00,68.6,49.8,30.22,NW,315,3.8,7.6,51,0.00,,,0.00,WUHU216HW,2013-06-14 01:49:00,
2013-06-13 18:50:00,68.6,49.8,30.22,NW,315,3.8,7.6,51,0.00,,,0.00,WUHU216HW,2013-06-14 01:50:00,
2013-06-13 18:51:00,68.6,49.8,30.22,NW,315,3.8,7.6,51,0.00,,,0.00,WUHU216HW,2013-06-14 01:51:00,
2013-06-13 18:52:00,68.8,50.0,30.21,NW,315,4.9,7.6,51,0.00,,,0.00,WUHU216HW,2013-06-14 01:52:00,
2013-06-13 18:54:00,68.8,50.0,30.22,NW,315,4.9,7.6,51,0.00,,,0.00,WUHU216HW,2013-06-14 01:54:00,
2013-06-13 18:55:00,68.8,50.0,30.21,NW,315,4.9,7.6,51,0.00,,,0.00,WUHU216HW,2013-06-14 01:55:00,
2013-06-13 18:56:00,68.6,50.2,30.21,NW,315,4.0,6.0,52,0.00,,,0.00,WUHU216HW,2013-06-14 01:56:00,
2013-06-13 18:57:00,68.6,50.2,30.21,NW,315,4.0,6.0,52,0.00,,,0.00,WUHU216HW,2013-06-14 01:57:00,
2013-06-13 18:59:00,68.6,50.2,30.21,NW,315,4.0,6.0,52,0.00,,,0.00,WUHU216HW,2013-06-14 01:59:00,
2013-06-13 19:00:00,68.8,50.4,30.21,WNW,293,4.0,6.0,52,0.00,,,0.00,WUHU216HW,2013-06-14 02:00:00,
2013-06-13 19:02:00,68.8,50.4,30.22,WNW,293,4.0,6.0,52,0.00,,,0.00,WUHU216HW,2013-06-14 02:02:00,
2013-06-13 19:03:00,68.8,50.4,30.22,WNW,293,4.0,4.9,52,0.00,,,0.00,WUHU216HW,2013-06-14 02:03:00,
2013-06-13 19:05:00,69.1,49.8,30.22,NW,315,4.9,5.4,50,0.00,,,0.00,WUHU216HW,2013-06-14 02:05:00,
2013-06-13 19:06:00,69.1,49.8,30.22,NW,315,4.9,5.4,50,0.00,,,0.00,WUHU216HW,2013-06-14 02:06:00,
2013-06-13 19:07:00,69.1,49.8,30.22,NW,315,4.9,5.4,50,0.00,,,0.00,WUHU216HW,2013-06-14 02:07:00,
2013-06-13 19:08:00,69.1,49.8,30.21,NW,315,4.9,5.4,50,0.00,,,0.00,WUHU216HW,2013-06-14 02:08:00,
2013-06-13 19:10:00,68.2,49.4,30.22,NW,315,4.5,6.0,51,0.00,,,0.00,WUHU216HW,2013-06-14 02:10:00,
2013-06-13 19:11:00,68.2,49.4,30.22,NW,315,4.5,6.0,51,0.00,,,0.00,WUHU216HW,2013-06-14 02:11:00,
2013-06-13 19:12:00,68.2,49.4,30.21,NW,315,4.5,6.0,51,0.00,,,0.00,WUHU216HW,2013-06-14 02:12:00,
2013-06-13 19:13:00,68.2,49.4,30.22,NW,315,4.5,6.0,51,0.00,,,0.00,WUHU216HW,2013-06-14 02:13:00,
2013-06-13 19:15:00,68.0,50.2,30.22,NW,315,4.3,6.0,53,0.00,,,0.00,WUHU216HW,2013-06-14 02:15:00,
2013-06-13 19:16:00,68.0,50.2,30.22,NW,315,4.3,6.0,53,0.00,,,0.00,WUHU216HW,2013-06-14 02:16:00,
2013-06-13 19:17:00,68.0,50.2,30.22,NW,315,4.3,6.0,53,0.00,,,0.00,WUHU216HW,2013-06-14 02:17:00,
2013-06-13 19:18:00,68.0,50.8,30.21,NW,315,6.0,6.0,54,0.00,,,0.00,WUHU216HW,2013-06-14 02:18:00,
2013-06-13 19:20:00,68.0,50.2,30.22,NW,315,4.9,6.0,53,0.00,,,0.00,WUHU216HW,2013-06-14 02:20:00,
2013-06-13 19:21:00,68.0,50.2,30.22,NW,315,4.9,6.0,53,0.00,,,0.00,WUHU216HW,2013-06-14 02:21:00,
2013-06-13 19:22:00,68.0,50.2,30.22,NW,315,4.9,6.0,53,0.00,,,0.00,WUHU216HW,2013-06-14 02:22:00,
2013-06-13 19:23:00,67.7,50.4,30.22,WNW,293,4.7,6.0,54,0.00,,,0.00,WUHU216HW,2013-06-14 02:23:00,
2013-06-13 19:25:00,67.5,51.2,30.22,NNW,338,5.1,6.0,56,0.00,,,0.00,WUHU216HW,2013-06-14 02:25:00,
2013-06-13 19:26:00,67.5,51.7,30.22,NW,315,5.6,6.0,57,0.00,,,0.00,WUHU216HW,2013-06-14 02:26:00,
2013-06-13 19:27:00,67.5,51.7,30.21,NW,315,5.6,6.0,57,0.00,,,0.00,WUHU216HW,2013-06-14 02:27:00,
2013-06-13 19:29:00,67.5,51.7,30.21,NW,315,5.6,5.6,57,0.00,,,0.00,WUHU216HW,2013-06-14 02:29:00,
2013-06-13 19:31:00,67.5,50.2,30.22,NW,315,4.7,5.8,54,0.00,,,0.00,WUHU216HW,2013-06-14 02:31:00,
2013-06-13 19:32:00,67.5,50.2,30.22,NW,315,4.7,5.8,54,0.00,,,0.00,WUHU216HW,2013-06-14 02:32:00,
2013-06-13 19:34:00,67.3,50.6,30.22,NW,315,4.7,5.8,55,0.00,,,0.00,WUHU216HW,2013-06-14 02:34:00,
2013-06-13 19:36:00,67.3,50.6,30.22,NW,315,4.7,5.8,55,0.00,,,0.00,WUHU216HW,2013-06-14 02:36:00,
2013-06-13 19:37:00,67.3,50.6,30.22,NW,315,4.7,5.8,55,0.00,,,0.00,WUHU216HW,2013-06-14 02:37:00,
2013-06-13 19:39:00,67.3,50.0,30.22,NW,315,6.0,6.0,54,0.00,,,0.00,WUHU216HW,2013-06-14 02:39:00,
2013-06-13 19:41:00,67.3,50.0,30.22,NW,315,6.0,6.0,54,0.00,,,0.00,WUHU216HW,2013-06-14 02:41:00,
2013-06-13 19:42:00,67.1,49.4,30.22,NW,315,3.8,6.0,53,0.00,,,0.00,WUHU216HW,2013-06-14 02:42:00,
2013-06-13 19:43:00,67.1,49.4,30.22,NW,315,3.1,6.0,53,0.00,,,0.00,WUHU216HW,2013-06-14 02:43:00,
2013-06-13 19:44:00,67.1,49.4,30.22,NW,315,3.1,6.0,53,0.00,,,0.00,WUHU216HW,2013-06-14 02:44:00,
2013-06-13 19:46:00,67.1,49.4,30.22,NW,315,4.7,6.0,53,0.00,,,0.00,WUHU216HW,2013-06-14 02:46:00,
2013-06-13 19:47:00,67.1,49.4,30.22,NW,315,4.7,6.0,53,0.00,,,0.00,WUHU216HW,2013-06-14 02:47:00,
2013-06-13 19:48:00,67.1,50.0,30.22,NW,315,4.7,6.0,54,0.00,,,0.00,WUHU216HW,2013-06-14 02:48:00,
2013-06-13 19:50:00,67.0,49.8,30.22,NW,315,2.7,6.0,54,0.00,,,0.00,WUHU216HW,2013-06-14 02:50:00,
2013-06-13 19:51:00,67.0,49.2,30.22,NW,315,3.8,6.0,53,0.00,,,0.00,WUHU216HW,2013-06-14 02:51:00,
2013-06-13 19:53:00,67.0,50.8,30.22,NW,315,4.9,4.9,56,0.00,,,0.00,WUHU216HW,2013-06-14 02:53:00,
2013-06-13 19:55:00,66.6,49.4,30.22,NW,315,4.9,4.9,54,0.00,,,0.00,WUHU216HW,2013-06-14 02:55:00,
2013-06-13 19:56:00,66.6,49.4,30.22,NW,315,4.7,4.9,54,0.00,,,0.00,WUHU216HW,2013-06-14 02:56:00,
2013-06-13 19:58:00,66.6,49.4,30.22,NW,315,5.6,5.6,54,0.00,,,0.00,WUHU216HW,2013-06-14 02:58:00,
2013-06-13 19:59:00,66.6,49.4,30.22,NW,315,5.6,5.6,54,0.00,,,0.00,WUHU216HW,2013-06-14 02:59:00,
2013-06-13 20:00:00,66.6,49.4,30.22,NW,315,5.6,5.6,54,0.00,,,0.00,WUHU216HW,2013-06-14 03:00:00,
2013-06-13 20:01:00,66.2,48.6,30.22,NW,315,4.5,5.6,53,0.00,,,0.00,WUHU216HW,2013-06-14 03:01:00,
2013-06-13 20:03:00,66.1,48.4,30.22,NW,315,3.8,5.6,53,0.00,,,0.00,WUHU216HW,2013-06-14 03:03:00,
2013-06-13 20:04:00,66.2,48.6,30.22,NW,315,3.4,5.6,53,0.00,,,0.00,WUHU216HW,2013-06-14 03:04:00,
2013-06-13 20:05:00,66.1,48.4,30.22,NW,315,3.1,5.6,53,0.00,,,0.00,WUHU216HW,2013-06-14 03:05:00,
2013-06-13 20:06:00,66.2,48.2,30.22,NW,315,3.8,5.6,52,0.00,,,0.00,WUHU216HW,2013-06-14 03:06:00,
2013-06-13 20:07:00,66.2,48.2,30.22,NW,315,3.8,5.6,52,0.00,,,0.00,WUHU216HW,2013-06-14 03:07:00,
2013-06-13 20:09:00,66.2,48.2,30.22,NW,315,3.8,5.6,52,0.00,,,0.00,WUHU216HW,2013-06-14 03:09:00,
2013-06-13 20:10:00,66.2,48.2,30.22,NW,315,4.3,5.6,52,0.00,,,0.00,WUHU216HW,2013-06-14 03:10:00,
2013-06-13 20:11:00,66.4,48.3,30.22,NW,315,2.5,4.5,52,0.00,,,0.00,WUHU216HW,2013-06-14 03:11:00,
2013-06-13 20:12:00,66.2,48.2,30.22,NW,315,2.5,4.5,52,0.00,,,0.00,WUHU216HW,2013-06-14 03:12:00,
2013-06-13 20:14:00,66.6,48.4,30.22,NW,315,2.5,4.3,52,0.00,,,0.00,WUHU216HW,2013-06-14 03:14:00,
2013-06-13 20:15:00,66.6,49.0,30.22,NW,315,2.5,4.3,53,0.00,,,0.00,WUHU216HW,2013-06-14 03:15:00,
2013-06-13 20:17:00,66.8,49.6,30.22,NW,315,2.5,4.3,54,0.00,,,0.00,WUHU216HW,2013-06-14 03:17:00,
2013-06-13 20:19:00,67.0,49.8,30.22,WNW,293,2.2,4.3,54,0.00,,,0.00,WUHU216HW,2013-06-14 03:19:00,
2013-06-13 20:20:00,67.0,49.2,30.22,West,270,1.3,3.8,53,0.00,,,0.00,WUHU216HW,2013-06-14 03:20:00,
2013-06-13 20:22:00,67.1,49.4,30.22,NW,315,1.1,2.7,53,0.00,,,0.00,WUHU216HW,2013-06-14 03:22:00,
2013-06-13 20:24:00,67.3,49.6,30.22,NW,315,2.2,2.7,53,0.00,,,0.00,WUHU216HW,2013-06-14 03:24:00,
2013-06-13 20:25:00,67.5,50.2,30.22,NW,315,1.3,2.7,54,0.00,,,0.00,WUHU216HW,2013-06-14 03:25:00,
2013-06-13 20:27:00,67.5,50.2,30.22,WNW,293,0.9,2.7,54,0.00,,,0.00,WUHU216HW,2013-06-14 03:27:00,
2013-06-13 20:29:00,67.3,50.0,30.22,WNW,293,1.1,2.5,54,0.00,,,0.00,WUHU216HW,2013-06-14 03:29:00,
2013-06-13 20:30:00,67.3,50.0,30.22,NNW,338,0.4,2.5,54,0.00,,,0.00,WUHU216HW,2013-06-14 03:30:00,
2013-06-13 20:31:00,67.3,50.0,30.22,NW,315,0.7,2.5,54,0.00,,,0.00,WUHU216HW,2013-06-14 03:31:00,
2013-06-13 20:32:00,67.3,50.0,30.22,WNW,293,1.1,2.5,54,0.00,,,0.00,WUHU216HW,2013-06-14 03:32:00,
2013-06-13 20:34:00,67.5,50.2,30.22,NNW,338,1.1,2.5,54,0.00,,,0.00,WUHU216HW,2013-06-14 03:34:00,
2013-06-13 20:35:00,67.7,50.4,30.22,North,0,1.1,1.8,54,0.00,,,0.00,WUHU216HW,2013-06-14 03:35:00,
2013-06-13 20:36:00,67.7,50.0,30.22,NW,315,1.1,3.6,53,0.00,,,0.00,WUHU216HW,2013-06-14 03:36:00,
2013-06-13 20:37:00,67.5,49.8,30.22,NW,315,2.7,3.6,53,0.00,,,0.00,WUHU216HW,2013-06-14 03:37:00,
2013-06-13 20:40:00,67.5,49.8,30.22,NW,315,2.7,3.6,53,0.00,,,0.00,WUHU216HW,2013-06-14 03:40:00,
2013-06-13 20:42:00,67.1,49.4,30.22,North,0,5.4,5.4,53,0.00,,,0.00,WUHU216HW,2013-06-14 03:42:00,
2013-06-13 20:45:00,66.6,49.0,30.22,NNW,338,3.6,5.4,53,0.00,,,0.00,WUHU216HW,2013-06-14 03:45:00,
2013-06-13 20:47:00,66.6,49.4,30.22,NNW,338,4.0,5.4,54,0.00,,,0.00,WUHU216HW,2013-06-14 03:47:00,
2013-06-13 20:50:00,66.2,49.6,30.22,NW,315,2.5,5.4,55,0.00,,,0.00,WUHU216HW,2013-06-14 03:50:00,
2013-06-13 20:52:00,65.9,49.2,30.22,North,0,1.1,4.0,55,0.00,,,0.00,WUHU216HW,2013-06-14 03:52:00,
2013-06-13 20:53:00,65.9,49.2,30.22,North,0,1.1,4.0,55,0.00,,,0.00,WUHU216HW,2013-06-14 03:53:00,
2013-06-13 20:55:00,65.3,49.1,30.22,NNW,338,3.1,4.0,56,0.00,,,0.00,WUHU216HW,2013-06-14 03:55:00,
2013-06-13 20:56:00,65.3,49.1,30.22,NNW,338,3.1,4.0,56,0.00,,,0.00,WUHU216HW,2013-06-14 03:56:00,
2013-06-13 20:58:00,65.2,49.0,30.22,NNW,338,1.1,3.1,56,0.00,,,0.00,WUHU216HW,2013-06-14 03:58:00,
2013-06-13 21:01:00,64.8,48.6,30.23,NNW,338,0.9,3.1,56,0.00,,,0.00,WUHU216HW,2013-06-14 04:01:00,
2013-06-13 21:06:00,64.1,48.4,30.23,NNW,338,1.8,3.1,57,0.00,,,0.00,WUHU216HW,2013-06-14 04:06:00,
2013-06-13 21:11:00,63.5,48.4,30.23,North,0,1.3,3.8,58,0.00,,,0.00,WUHU216HW,2013-06-14 04:11:00,
2013-06-13 21:16:00,63.0,48.0,30.23,North,0,0.4,3.8,58,0.00,,,0.00,WUHU216HW,2013-06-14 04:16:00,
2013-06-13 21:17:00,63.0,48.0,30.23,NW,315,1.8,3.8,58,0.00,,,0.00,WUHU216HW,2013-06-14 04:17:00,
2013-06-13 21:21:00,62.6,48.2,30.23,NNW,338,1.3,3.8,59,0.00,,,0.00,WUHU216HW,2013-06-14 04:21:00,
2013-06-13 21:22:00,62.5,48.0,30.23,North,0,1.1,3.8,59,0.00,,,0.00,WUHU216HW,2013-06-14 04:22:00,
2013-06-13 21:26:00,62.1,48.2,30.23,North,0,1.1,3.8,60,0.00,,,0.00,WUHU216HW,2013-06-14 04:26:00,
2013-06-13 21:27:00,62.1,48.2,30.23,NNW,338,2.2,3.8,60,0.00,,,0.00,WUHU216HW,2013-06-14 04:27:00,
2013-06-13 21:31:00,61.6,48.1,30.23,NNE,23,0.9,3.1,61,0.00,,,0.00,WUHU216HW,2013-06-14 04:31:00,
2013-06-13 21:32:00,61.6,48.1,30.23,North,0,1.1,3.1,61,0.00,,,0.00,WUHU216HW,2013-06-14 04:32:00,
2013-06-13 21:36:00,61.2,48.2,30.23,NE,45,1.3,2.7,62,0.00,,,0.00,WUHU216HW,2013-06-14 04:36:00,
2013-06-13 21:37:00,61.2,48.2,30.23,SE,135,1.6,2.7,62,0.00,,,0.00,WUHU216HW,2013-06-14 04:37:00,
2013-06-13 21:38:00,61.2,48.2,30.23,NNW,338,1.1,2.7,62,0.00,,,0.00,WUHU216HW,2013-06-14 04:38:00,
2013-06-13 21:41:00,60.8,48.6,30.24,North,0,1.8,3.4,64,0.00,,,0.00,WUHU216HW,2013-06-14 04:41:00,
2013-06-13 21:42:00,60.8,48.6,30.24,North,0,2.5,3.4,64,0.00,,,0.00,WUHU216HW,2013-06-14 04:42:00,
2013-06-13 21:43:00,60.7,48.4,30.24,NNW,338,2.5,3.8,64,0.00,,,0.00,WUHU216HW,2013-06-14 04:43:00,
2013-06-13 21:46:00,60.5,48.7,30.24,NNE,23,2.2,3.8,65,0.00,,,0.00,WUHU216HW,2013-06-14 04:46:00,
2013-06-13 21:47:00,60.5,48.7,30.24,North,0,1.8,3.8,65,0.00,,,0.00,WUHU216HW,2013-06-14 04:47:00,
2013-06-13 21:48:00,60.3,48.5,30.24,NNW,338,2.2,3.8,65,0.00,,,0.00,WUHU216HW,2013-06-14 04:48:00,
2013-06-13 21:52:00,59.9,48.2,30.24,NNE,23,5.1,5.1,65,0.00,,,0.00,WUHU216HW,2013-06-14 04:52:00,
2013-06-13 21:53:00,59.9,48.2,30.24,North,0,2.9,5.1,65,0.00,,,0.00,WUHU216HW,2013-06-14 04:53:00,
2013-06-13 21:57:00,59.6,48.3,30.24,North,0,2.5,5.1,66,0.00,,,0.00,WUHU216HW,2013-06-14 04:57:00,
2013-06-13 21:58:00,59.4,48.1,30.24,North,0,1.1,5.1,66,0.00,,,0.00,WUHU216HW,2013-06-14 04:58:00,
2013-06-13 21:59:00,59.4,48.1,30.24,North,0,1.8,5.1,66,0.00,,,0.00,WUHU216HW,2013-06-14 04:59:00,
2013-06-13 22:02:00,59.4,48.4,30.24,NNW,338,3.1,5.1,67,0.00,,,0.00,WUHU216HW,2013-06-14 05:02:00,
2013-06-13 22:03:00,59.2,48.2,30.24,NNW,338,4.7,4.7,67,0.00,,,0.00,WUHU216HW,2013-06-14 05:03:00,
2013-06-13 22:04:00,59.0,48.5,30.24,NNE,23,4.7,4.7,68,0.00,,,0.00,WUHU216HW,2013-06-14 05:04:00,
2013-06-13 22:07:00,58.9,48.3,30.24,NNW,338,4.0,6.3,68,0.00,,,0.00,WUHU216HW,2013-06-14 05:07:00,
2013-06-13 22:09:00,58.7,48.2,30.25,NE,45,4.9,6.7,68,0.00,,,0.00,WUHU216HW,2013-06-14 05:09:00,
2013-06-13 22:10:00,58.7,48.2,30.24,NNW,338,2.9,6.7,68,0.00,,,0.00,WUHU216HW,2013-06-14 05:10:00,
2013-06-13 22:12:00,58.5,48.0,30.24,North,0,4.0,8.1,68,0.00,,,0.00,WUHU216HW,2013-06-14 05:12:00,
2013-06-13 22:13:00,58.5,48.0,30.24,NE,45,2.9,8.1,68,0.00,,,0.00,WUHU216HW,2013-06-14 05:13:00,
2013-06-13 22:15:00,58.3,47.8,30.24,NNE,23,1.1,8.1,68,0.00,,,0.00,WUHU216HW,2013-06-14 05:15:00,
2013-06-13 22:17:00,58.1,47.6,30.25,NW,315,2.2,8.1,68,0.00,,,0.00,WUHU216HW,2013-06-14 05:17:00,
2013-06-13 22:18:00,58.1,47.6,30.25,NW,315,2.2,8.1,68,0.00,,,0.00,WUHU216HW,2013-06-14 05:18:00,
2013-06-13 22:20:00,58.0,47.9,30.25,NW,315,2.9,8.1,69,0.00,,,0.00,WUHU216HW,2013-06-14 05:20:00,
2013-06-13 22:23:00,58.0,48.6,30.25,West,270,0.7,4.0,71,0.00,,,0.00,WUHU216HW,2013-06-14 05:23:00,
2013-06-13 22:25:00,58.0,49.0,30.25,NW,315,2.7,4.0,72,0.00,,,0.00,WUHU216HW,2013-06-14 05:25:00,
2013-06-13 22:28:00,57.8,48.8,30.25,NW,315,1.8,4.0,72,0.00,,,0.00,WUHU216HW,2013-06-14 05:28:00,
2013-06-13 22:30:00,57.8,49.1,30.25,NW,315,1.8,4.0,73,0.00,,,0.00,WUHU216HW,2013-06-14 05:30:00,
2013-06-13 22:33:00,57.6,48.2,30.25,NW,315,1.8,3.1,71,0.00,,,0.00,WUHU216HW,2013-06-14 05:33:00,
2013-06-13 22:35:00,57.6,48.2,30.25,North,0,2.9,3.1,71,0.00,,,0.00,WUHU216HW,2013-06-14 05:35:00,
2013-06-13 22:38:00,57.4,48.1,30.25,NW,315,1.1,3.1,71,0.00,,,0.00,WUHU216HW,2013-06-14 05:38:00,
2013-06-13 22:40:00,57.2,48.2,30.25,WNW,293,3.4,3.4,72,0.00,,,0.00,WUHU216HW,2013-06-14 05:40:00,
2013-06-13 22:43:00,57.2,48.2,30.25,NW,315,1.8,3.4,72,0.00,,,0.00,WUHU216HW,2013-06-14 05:43:00,
2013-06-13 22:45:00,57.2,47.9,30.25,WNW,293,0.7,3.4,71,0.00,,,0.00,WUHU216HW,2013-06-14 05:45:00,
2013-06-13 22:46:00,57.2,47.9,30.25,NW,315,2.5,3.4,71,0.00,,,0.00,WUHU216HW,2013-06-14 05:46:00,
2013-06-13 22:48:00,57.2,47.9,30.25,WNW,293,3.4,3.4,71,0.00,,,0.00,WUHU216HW,2013-06-14 05:48:00,
2013-06-13 22:49:00,57.2,47.9,30.25,NW,315,2.9,3.4,71,0.00,,,0.00,WUHU216HW,2013-06-14 05:49:00,
2013-06-13 22:50:00,57.2,48.6,30.25,NW,315,4.0,4.3,73,0.00,,,0.00,WUHU216HW,2013-06-14 05:50:00,
2013-06-13 22:51:00,57.2,48.2,30.25,NW,315,2.7,4.3,72,0.00,,,0.00,WUHU216HW,2013-06-14 05:51:00,
2013-06-13 22:53:00,57.2,48.6,30.25,NW,315,2.2,4.3,73,0.00,,,0.00,WUHU216HW,2013-06-14 05:53:00,
2013-06-13 22:54:00,57.2,48.6,30.25,WNW,293,2.5,4.3,73,0.00,,,0.00,WUHU216HW,2013-06-14 05:54:00,
2013-06-13 22:55:00,57.2,48.2,30.25,NW,315,2.9,4.3,72,0.00,,,0.00,WUHU216HW,2013-06-14 05:55:00,
2013-06-13 22:56:00,57.2,48.2,30.25,NW,315,1.8,4.3,72,0.00,,,0.00,WUHU216HW,2013-06-14 05:56:00,
2013-06-13 22:58:00,57.2,48.2,30.25,WNW,293,0.0,4.3,72,0.00,,,0.00,WUHU216HW,2013-06-14 05:58:00,
2013-06-13 22:59:00,57.2,48.2,30.25,West,270,0.0,4.0,72,0.00,,,0.00,WUHU216HW,2013-06-14 05:59:00,
2013-06-13 23:00:00,57.2,48.2,30.25,WNW,293,1.1,4.0,72,0.00,,,0.00,WUHU216HW,2013-06-14 06:00:00,
2013-06-13 23:01:00,57.2,48.2,30.25,NW,315,1.1,4.0,72,0.00,,,0.00,WUHU216HW,2013-06-14 06:01:00,
2013-06-13 23:03:00,57.2,48.2,30.26,North,0,0.0,2.9,72,0.00,,,0.00,WUHU216HW,2013-06-14 06:03:00,
2013-06-13 23:04:00,57.1,48.1,30.25,West,270,0.9,2.9,72,0.00,,,0.00,WUHU216HW,2013-06-14 06:04:00,
2013-06-13 23:05:00,57.1,48.1,30.25,West,270,0.9,2.0,72,0.00,,,0.00,WUHU216HW,2013-06-14 06:05:00,
2013-06-13 23:06:00,57.1,48.1,30.26,West,270,0.9,2.0,72,0.00,,,0.00,WUHU216HW,2013-06-14 06:06:00,
2013-06-13 23:08:00,57.1,48.1,30.26,West,270,0.9,2.0,72,0.00,,,0.00,WUHU216HW,2013-06-14 06:08:00,
2013-06-13 23:09:00,57.1,48.1,30.25,SSE,158,0.0,2.0,72,0.00,,,0.00,WUHU216HW,2013-06-14 06:09:00,
2013-06-13 23:10:00,57.1,48.1,30.25,SSE,158,0.0,2.0,72,0.00,,,0.00,WUHU216HW,2013-06-14 06:10:00,
2013-06-13 23:11:00,57.1,48.1,30.25,SSE,158,0.0,1.1,72,0.00,,,0.00,WUHU216HW,2013-06-14 06:11:00,
2013-06-13 23:13:00,56.9,47.9,30.25,SSE,158,1.1,1.1,72,0.00,,,0.00,WUHU216HW,2013-06-14 06:13:00,
2013-06-13 23:14:00,56.9,47.9,30.26,SSE,158,0.4,1.1,72,0.00,,,0.00,WUHU216HW,2013-06-14 06:14:00,
2013-06-13 23:15:00,56.9,47.5,30.26,South,180,0.4,1.1,71,0.00,,,0.00,WUHU216HW,2013-06-14 06:15:00,
2013-06-13 23:17:00,56.9,48.2,30.26,SE,135,2.0,2.0,73,0.00,,,0.00,WUHU216HW,2013-06-14 06:17:00,
2013-06-13 23:19:00,56.7,47.7,30.25,SE,135,0.0,2.0,72,0.00,,,0.00,WUHU216HW,2013-06-14 06:19:00,
2013-06-13 23:21:00,56.5,47.6,30.25,East,90,0.0,2.0,72,0.00,,,0.00,WUHU216HW,2013-06-14 06:21:00,
2013-06-13 23:22:00,56.5,47.6,30.25,NNE,23,1.1,2.0,72,0.00,,,0.00,WUHU216HW,2013-06-14 06:22:00,
2013-06-13 23:24:00,56.3,47.4,30.25,NE,45,0.9,2.0,72,0.00,,,0.00,WUHU216HW,2013-06-14 06:24:00,
2013-06-13 23:25:00,56.3,47.4,30.25,NE,45,0.4,2.0,72,0.00,,,0.00,WUHU216HW,2013-06-14 06:25:00,
2013-06-13 23:26:00,56.2,47.3,30.25,East,90,1.1,2.0,72,0.00,,,0.00,WUHU216HW,2013-06-14 06:26:00,
2013-06-13 23:27:00,56.2,47.3,30.25,ENE,68,0.0,2.0,72,0.00,,,0.00,WUHU216HW,2013-06-14 06:27:00,
2013-06-13 23:29:00,55.8,46.5,30.25,ENE,68,0.2,1.3,71,0.00,,,0.00,WUHU216HW,2013-06-14 06:29:00,
2013-06-13 23:30:00,55.8,46.5,30.25,ENE,68,0.0,1.3,71,0.00,,,0.00,WUHU216HW,2013-06-14 06:30:00,
2013-06-13 23:32:00,55.8,46.5,30.25,SE,135,0.0,1.3,71,0.00,,,0.00,WUHU216HW,2013-06-14 06:32:00,
2013-06-13 23:34:00,55.4,46.6,30.25,ENE,68,0.4,1.1,72,0.00,,,0.00,WUHU216HW,2013-06-14 06:34:00,
2013-06-13 23:35:00,55.4,46.6,30.25,North,0,0.7,1.1,72,0.00,,,0.00,WUHU216HW,2013-06-14 06:35:00,
2013-06-13 23:37:00,55.1,46.3,30.25,North,0,0.0,0.9,72,0.00,,,0.00,WUHU216HW,2013-06-14 06:37:00,
2013-06-13 23:39:00,55.1,46.3,30.26,North,0,0.0,0.9,72,0.00,,,0.00,WUHU216HW,2013-06-14 06:39:00,
2013-06-13 23:40:00,55.1,46.6,30.26,East,90,0.0,0.9,73,0.00,,,0.00,WUHU216HW,2013-06-14 06:40:00,
2013-06-13 23:42:00,55.1,46.6,30.26,East,90,0.0,0.9,73,0.00,,,0.00,WUHU216HW,2013-06-14 06:42:00,
2013-06-13 23:43:00,55.1,46.9,30.26,ENE,68,0.0,0.9,74,0.00,,,0.00,WUHU216HW,2013-06-14 06:43:00,
2013-06-13 23:44:00,55.1,46.9,30.26,NNE,23,0.0,0.7,74,0.00,,,0.00,WUHU216HW,2013-06-14 06:44:00,
2013-06-13 23:46:00,55.1,46.9,30.26,North,0,0.4,0.7,74,0.00,,,0.00,WUHU216HW,2013-06-14 06:46:00,
2013-06-13 23:47:00,55.1,46.9,30.26,NNW,338,2.5,2.5,74,0.00,,,0.00,WUHU216HW,2013-06-14 06:47:00,
2013-06-13 23:48:00,55.1,46.9,30.26,NNW,338,2.5,2.5,74,0.00,,,0.00,WUHU216HW,2013-06-14 06:48:00,
2013-06-13 23:50:00,55.1,47.3,30.26,NNW,338,0.4,2.5,75,0.00,,,0.00,WUHU216HW,2013-06-14 06:50:00,
2013-06-13 23:51:00,55.1,47.3,30.26,NNW,338,0.0,2.5,75,0.00,,,0.00,WUHU216HW,2013-06-14 06:51:00,
2013-06-13 23:53:00,55.3,47.1,30.27,East,90,1.1,2.5,74,0.00,,,0.00,WUHU216HW,2013-06-14 06:53:00,
2013-06-13 23:55:00,55.4,47.3,30.26,NE,45,0.0,2.5,74,0.00,,,0.00,WUHU216HW,2013-06-14 06:55:00,
2013-06-13 23:56:00,55.4,47.3,30.27,East,90,0.9,2.5,74,0.00,,,0.00,WUHU216HW,2013-06-14 06:56:00,
2013-06-13 23:58:00,55.4,47.6,30.26,East,90,0.7,1.8,75,0.00,,,0.00,WUHU216HW,2013-06-14 06:58:00,